This demonstration page uses our WeatherBlox Daily Observations layout. Learn more.

Left ArrowRight Arrow

36.17497, -115.13722

Hourly Observations for August 26, 2017

Temp ( °F °C ) Dew Point ( °F °C ) Humidity (%) Winds ( mph kmh ) Pressure ( in mb ) Visibility ( mi km ) Precip ( " mm )
12:53 am 00:53 Clear 84 28.9 55 12.8 37 37 N N/A 29.86 1011 10 16.0934 N/A
1:53 am 01:53 Clear 82 27.8 55 12.8 40 40 N N/A 29.86 1011 10 16.0934 N/A
2:53 am 02:53 Clear 81 27.2 54 12.2 39 39 NNW 5 7 29.87 1012 10 16.0934 N/A
3:53 am 03:53 Clear 80 26.7 55 12.8 42 42 N N/A 29.88 1012 10 16.0934 N/A
4:53 am 04:53 Clear 80 26.7 54 12.2 41 41 N N/A 29.88 1012 10 16.0934 N/A
5:53 am 05:53 Clear 78 25.6 55 12.8 45 45 N 3 6 29.91 1013 10 16.0934 N/A
6:53 am 06:53 Sunny 80 26.7 54 12.2 41 41 N N/A 29.93 1014 10 16.0934 N/A
7:53 am 07:53 Sunny 85 29.4 52 11.1 32 32 WNW 8 13 29.95 1014 10 16.0934 N/A
8:53 am 08:53 Sunny 91 32.8 50 10 25 25 N N/A 29.96 1015 10 16.0934 N/A
9:53 am 09:53 Sunny 93 33.9 48 8.9 21 21 N N/A 29.97 1015 10 16.0934 N/A
10:53 am 10:53 Sunny 95 35 48 8.9 20 20 N N/A 29.97 1015 10 16.0934 N/A
11:53 am 11:53 Sunny 98 36.7 47 8.3 17 17 N N/A 29.96 1014 10 16.0934 N/A
12:53 pm 12:53 Sunny 101 38.3 45 7.2 15 15 SE 6 9 29.94 1014 10 16.0934 N/A
1:53 pm 13:53 Sunny 103 39.4 43 6.1 13 13 VRB 6 9 29.92 1013 10 16.0934 N/A
2:53 pm 14:53 Sunny 104 40 40 4.4 11 11 SSE 7 11 29.89 1012 10 16.0934 N/A
3:53 pm 15:53 Sunny 104 40 41 5 12 12 VRB 6 9 29.87 1012 10 16.0934 N/A
4:53 pm 16:53 Sunny 104 40 38 3.3 10 10 N N/A 29.86 1011 10 16.0934 N/A
5:53 pm 17:53 Sunny 104 40 37 2.8 10 10 N N/A 29.86 1011 10 16.0934 N/A
6:53 pm 18:53 Sunny 103 39.4 39 3.9 11 11 N N/A 29.85 1011 10 16.0934 N/A
7:53 pm 19:53 Clear 101 38.3 42 5.6 13 13 N N/A 29.87 1011 10 16.0934 N/A
8:53 pm 20:53 Clear 95 35 47 8.3 19 19 NNW 3 6 29.89 1012 10 16.0934 N/A
9:53 pm 21:53 Clear 92 33.3 47 8.3 21 21 N 5 7 29.9 1013 10 16.0934 N/A
10:53 pm 22:53 Clear 91 32.8 46 7.8 21 21 NW 7 11 29.9 1013 10 16.0934 N/A
11:53 pm 23:53 Clear 88 31.1 49 9.4 26 26 NW 6 9 29.9 1013 10 16.0934 N/A

Powered by AerisWeather